• în Republica Moldova
  • Lista ţărilor
  • Pe 7 zile
  • Temperatura apei
  • Hartă satelitară
  • Meteo pe hartă
  • Widget-uri
  • user-avatar
    Intrare

    Meteo pe oră la Darwin

    Astăzi, 17 Octombrie, Marţi

    Timp Temperatura Precipitaţii Vânt Presiune Umiditate
    00:00 +32°C° 0 mm 4 m/s 754 mmHg 76%
    01:00 +32°C° 0 mm 4 m/s 754 mmHg 78%
    02:00 +32°C° 0 mm 4 m/s 754 mmHg 79%
    03:00 +30°C° 0 mm 4 m/s 754 mmHg 80%
    04:00 +30°C° 0,3 mm 3 m/s 754 mmHg 82%
    05:00 +30°C° 0,3 mm 3 m/s 755 mmHg 84%
    06:00 +30°C° 0,3 mm 3 m/s 755 mmHg 85%
    07:00 +31°C° 0,3 mm 3 m/s 755 mmHg 77%
    08:00 +34°C° 0,3 mm 4 m/s 756 mmHg 69%
    09:00 +35°C° 0 mm 3 m/s 756 mmHg 59%
    10:00 +37°C° 0,1 mm 3 m/s 756 mmHg 53%
    11:00 +38°C° 0,1 mm 4 m/s 755 mmHg 47%
    12:00 +41°C° 0,1 mm 4 m/s 755 mmHg 40%
    13:00 +40°C° 0 mm 4 m/s 754 mmHg 41%
    14:00 +40°C° 0 mm 5 m/s 754 mmHg 42%
    15:00 +39°C° 0 mm 5 m/s 753 mmHg 43%
    16:00 +37°C° 0,3 mm 5 m/s 753 mmHg 48%
    17:00 +35°C° 0,3 mm 4 m/s 753 mmHg 53%
    18:00 +34°C° 0,3 mm 4 m/s 753 mmHg 58%
    19:00 +34°C° 0,1 mm 4 m/s 754 mmHg 60%
    20:00 +33°C° 0,1 mm 4 m/s 754 mmHg 62%
    21:00 +33°C° 0,1 mm 3 m/s 755 mmHg 65%
    22:00 +31°C° 0,3 mm 3 m/s 755 mmHg 68%
    23:00 +31°C° 0,3 mm 3 m/s 755 mmHg 72%

    Mâine, 18 Octombrie, Miercuri

    Timp Temperatura Precipitaţii Vânt Presiune Umiditate
    00:00 +31°C° 0,3 mm 3 m/s 755 mmHg 76%
    01:00 +30°C° 0,4 mm 3 m/s 755 mmHg 78%
    02:00 +30°C° 0,4 mm 3 m/s 755 mmHg 80%
    03:00 +30°C° 0,4 mm 2 m/s 755 mmHg 82%
    04:00 +29°C° 0,5 mm 2 m/s 755 mmHg 81%
    05:00 +29°C° 0,5 mm 1 m/s 755 mmHg 80%
    06:00 +29°C° 0,5 mm 1 m/s 756 mmHg 79%
    07:00 +31°C° 0,1 mm 1 m/s 756 mmHg 67%
    08:00 +34°C° 0,1 mm 1 m/s 756 mmHg 56%
    09:00 +36°C° 0,1 mm 1 m/s 757 mmHg 44%
    10:00 +37°C° 0 mm 1 m/s 756 mmHg 40%
    11:00 +40°C° 0 mm 2 m/s 756 mmHg 36%
    12:00 +41°C° 0 mm 2 m/s 755 mmHg 32%
    13:00 +40°C° 0 mm 3 m/s 755 mmHg 34%
    14:00 +39°C° 0 mm 3 m/s 754 mmHg 36%
    15:00 +38°C° 0 mm 3 m/s 754 mmHg 38%
    16:00 +37°C° 0 mm 3 m/s 754 mmHg 40%
    17:00 +37°C° 0 mm 3 m/s 754 mmHg 43%
    18:00 +36°C° 0 mm 2 m/s 754 mmHg 46%
    19:00 +35°C° 0,1 mm 2 m/s 755 mmHg 50%
    20:00 +34°C° 0,1 mm 2 m/s 755 mmHg 53%
    21:00 +34°C° 0,1 mm 2 m/s 756 mmHg 56%
    22:00 +32°C° 0,1 mm 2 m/s 756 mmHg 59%
    23:00 +33°C° 0,1 mm 3 m/s 756 mmHg 62%

    Poimâine, 19 Octombrie, Joi

    Timp Temperatura Precipitaţii Vânt Presiune Umiditate
    00:00 +32°C° 0,1 mm 4 m/s 756 mmHg 65%
    01:00 +31°C° 0,1 mm 3 m/s 756 mmHg 67%
    02:00 +30°C° 0,1 mm 3 m/s 756 mmHg 69%
    03:00 +30°C° 0,1 mm 3 m/s 755 mmHg 70%
    04:00 +30°C° 0,4 mm 3 m/s 756 mmHg 71%
    05:00 +29°C° 0,4 mm 3 m/s 756 mmHg 72%
    06:00 +29°C° 0,4 mm 3 m/s 757 mmHg 73%
    07:00 +31°C° 0 mm 3 m/s 757 mmHg 64%
    08:00 +34°C° 0 mm 2 m/s 757 mmHg 56%
    09:00 +35°C° 0 mm 1 m/s 757 mmHg 47%
    10:00 +37°C° 0 mm 1 m/s 757 mmHg 41%
    11:00 +40°C° 0 mm 2 m/s 757 mmHg 35%
    12:00 +42°C° 0 mm 2 m/s 756 mmHg 30%
    13:00 +40°C° 0 mm 3 m/s 755 mmHg 33%
    14:00 +39°C° 0 mm 3 m/s 755 mmHg 35%
    15:00 +37°C° 0 mm 4 m/s 754 mmHg 38%
    16:00 +36°C° 0,1 mm 4 m/s 754 mmHg 44%
    17:00 +35°C° 0,1 mm 5 m/s 754 mmHg 49%
    18:00 +34°C° 0,1 mm 5 m/s 755 mmHg 54%
    19:00 +34°C° 0 mm 5 m/s 755 mmHg 58%
    20:00 +33°C° 0 mm 5 m/s 756 mmHg 61%
    21:00 +33°C° 0 mm 5 m/s 756 mmHg 65%
    22:00 +33°C° 0,2 mm 5 m/s 757 mmHg 67%
    23:00 +32°C° 0,2 mm 4 m/s 757 mmHg 69%

    20 Octombrie, Vineri

    Timp Temperatura Precipitaţii Vânt Presiune Umiditate
    00:00 +31°C° 0,2 mm 3 m/s 757 mmHg 71%
    01:00 +30°C° 1,5 mm 3 m/s 757 mmHg 71%
    02:00 +30°C° 1,5 mm 3 m/s 757 mmHg 70%
    03:00 +29°C° 1,5 mm 4 m/s 757 mmHg 70%
    04:00 +29°C° 0 mm 3 m/s 757 mmHg 71%
    05:00 +29°C° 0 mm 2 m/s 757 mmHg 71%
    06:00 +29°C° 0 mm 1 m/s 758 mmHg 72%
    07:00 +31°C° 0 mm 1 m/s 758 mmHg 63%
    08:00 +33°C° 0 mm 1 m/s 758 mmHg 55%
    09:00 +33°C° 0 mm 0 m/s 759 mmHg 46%
    10:00 +37°C° 0 mm 1 m/s 758 mmHg 41%
    11:00 +39°C° 0 mm 2 m/s 758 mmHg 36%
    12:00 +41°C° 0 mm 2 m/s 757 mmHg 31%
    13:00 +39°C° 0 mm 3 m/s 757 mmHg 35%
    14:00 +38°C° 0 mm 4 m/s 756 mmHg 38%
    15:00 +36°C° 0 mm 5 m/s 756 mmHg 42%
    16:00 +36°C° 0 mm 4 m/s 756 mmHg 46%
    17:00 +35°C° 0 mm 4 m/s 756 mmHg 49%
    18:00 +34°C° 0 mm 4 m/s 756 mmHg 53%
    19:00 +34°C° 0,2 mm 4 m/s 757 mmHg 56%
    20:00 +33°C° 0,2 mm 3 m/s 757 mmHg 59%
    21:00 +33°C° 0,2 mm 3 m/s 758 mmHg 62%
    22:00 +31°C° 0,1 mm 3 m/s 758 mmHg 64%
    23:00 +31°C° 0,1 mm 3 m/s 758 mmHg 65%

    21 Octombrie, Sâmbătă

    Timp Temperatura Precipitaţii Vânt Presiune Umiditate
    00:00 +32°C° 0,1 mm 4 m/s 758 mmHg 67%
    01:00 +30°C° 0,1 mm 4 m/s 757 mmHg 69%
    02:00 +30°C° 0,1 mm 3 m/s 757 mmHg 70%
    03:00 +29°C° 0,1 mm 3 m/s 757 mmHg 72%
    04:00 +30°C° 0 mm 3 m/s 757 mmHg 72%
    05:00 +30°C° 0 mm 3 m/s 758 mmHg 71%
    06:00 +30°C° 0 mm 2 m/s 758 mmHg 71%
    07:00 +31°C° 0 mm 3 m/s 758 mmHg 65%
    08:00 +34°C° 0 mm 3 m/s 759 mmHg 58%
    09:00 +35°C° 0 mm 3 m/s 759 mmHg 52%
    10:00 +36°C° 0 mm 3 m/s 758 mmHg 48%
    11:00 +37°C° 0 mm 3 m/s 758 mmHg 43%
    12:00 +40°C° 0 mm 4 m/s 757 mmHg 39%
    13:00 +37°C° 0,4 mm 4 m/s 756 mmHg 44%
    14:00 +36°C° 0,4 mm 4 m/s 756 mmHg 48%
    15:00 +35°C° 0,4 mm 4 m/s 755 mmHg 52%
    16:00 +34°C° 0,1 mm 4 m/s 755 mmHg 55%
    17:00 +34°C° 0,1 mm 3 m/s 756 mmHg 58%
    18:00 +33°C° 0,1 mm 3 m/s 756 mmHg 60%
    19:00 +33°C° 0 mm 3 m/s 756 mmHg 62%
    20:00 +33°C° 0 mm 3 m/s 757 mmHg 64%
    21:00 +31°C° 0 mm 2 m/s 757 mmHg 66%
    22:00 +31°C° 0,6 mm 2 m/s 757 mmHg 69%
    23:00 +30°C° 0,6 mm 2 m/s 757 mmHg 71%

    22 Octombrie, Duminică

    Timp Temperatura Precipitaţii Vânt Presiune Umiditate
    00:00 +30°C° 0,6 mm 2 m/s 757 mmHg 74%
    01:00 +29°C° 0,3 mm 1 m/s 757 mmHg 74%
    02:00 +29°C° 0,3 mm 1 m/s 756 mmHg 74%
    03:00 +29°C° 0,3 mm 1 m/s 756 mmHg 74%
    04:00 +29°C° 0 mm 1 m/s 756 mmHg 74%
    05:00 +29°C° 0 mm 1 m/s 757 mmHg 75%
    06:00 +29°C° 0 mm 1 m/s 757 mmHg 75%
    07:00 +31°C° 0 mm 1 m/s 757 mmHg 66%
    08:00 +33°C° 0 mm 1 m/s 757 mmHg 58%
    09:00 +33°C° 0 mm 0 m/s 758 mmHg 49%
    10:00 +36°C° 0 mm 1 m/s 757 mmHg 46%
    11:00 +38°C° 0 mm 2 m/s 757 mmHg 43%
    12:00 +39°C° 0 mm 2 m/s 756 mmHg 40%
    13:00 +38°C° 0 mm 2 m/s 756 mmHg 42%
    14:00 +37°C° 0 mm 2 m/s 755 mmHg 44%
    15:00 +37°C° 0 mm 2 m/s 755 mmHg 46%
    16:00 +36°C° 0 mm 2 m/s 755 mmHg 50%
    17:00 +35°C° 0 mm 2 m/s 755 mmHg 53%
    18:00 +34°C° 0 mm 2 m/s 755 mmHg 57%
    19:00 +34°C° 0,1 mm 2 m/s 756 mmHg 60%
    20:00 +32°C° 0,1 mm 2 m/s 756 mmHg 64%
    21:00 +31°C° 0,1 mm 3 m/s 757 mmHg 67%
    22:00 +31°C° 0 mm 3 m/s 757 mmHg 69%
    23:00 +31°C° 0 mm 3 m/s 756 mmHg 70%
    Arată mai mult